Location: Unspecified
(20.0000°S, 0.0000°E)
Time: 19:50:21
(UTC+00:00)

N. Korean satellite - Visible Passes

Search period start: 25 May 2019 00:00
Search period end: 04 June 2019 00:00
Orbit: 456 x 508 km, 97.2° (Epoch: 24 May)

Date Brightness Start Highest point End Pass type
(mag) Time Alt. Az. Time Alt. Az. Time Alt. Az.
25 May 9.3 04:52:18 10° ENE 04:54:42 18° ESE 04:57:07 10° SSE visible
25 May 7.1 18:01:32 10° S 18:05:15 66° WSW 18:08:56 10° NNW visible
26 May 7.4 05:59:52 10° NNW 06:02:54 30° W 06:05:59 10° SW visible
27 May 6.4 05:34:29 10° N 05:37:54 83° WNW 05:41:24 10° SSW visible
27 May 9.6 18:46:21 10° SW 18:48:26 14° WSW 18:50:30 10° WNW visible
28 May 8.1 05:09:49 10° NE 05:12:58 35° ESE 05:16:11 10° S visible
28 May 8.5 18:20:12 10° SSW 18:23:35 32° WSW 18:26:57 10° NW visible
29 May 9.5 04:46:09 10° ENE 04:48:07 15° ESE 04:50:06 10° SE visible
29 May 6.7 17:54:55 10° S 17:58:41 84° WSW 18:02:24 10° NNW visible
30 May 7.0 05:53:03 10° N 05:56:16 38° W 05:59:33 10° SSW visible
31 May 6.6 05:27:51 10° NNE 05:31:16 75° E 05:34:47 10° S visible
31 May 9.5 18:39:19 10° SSW 18:41:53 18° WSW 18:44:26 10° WNW visible
01 Jun 8.5 05:03:23 10° NE 05:06:22 28° ESE 05:09:24 10° SSE visible
01 Jun 8.0 18:13:28 10° S 18:17:01 41° WSW 18:20:32 10° NNW visible
02 Jun 9.6 04:40:12 10° E 04:41:32 12° ESE 04:42:52 10° SE visible
02 Jun 6.6 17:48:19 10° SSE 17:52:05 77° E 17:55:48 10° N visible
03 Jun 6.7 05:46:16 10° N 05:49:36 49° W 05:53:02 10° SSW visible
